TimeEDT,TemperatureF,Dew PointF,Humidity,Sea Level PressureIn,VisibilityMPH,Wind Direction,Wind SpeedMPH,Gust SpeedMPH,PrecipitationIn,Events,Conditions,WindDirDegrees,DateUTC
12:39 AM,73.4,71.6,94,29.82,7.0,SSW,5.8,-,N/A,,Overcast,210,2013-07-11 04:39:00
12:52 AM,73.0,71.1,93,29.81,7.0,SSW,6.9,-,N/A,,Overcast,210,2013-07-11 04:52:00
1:52 AM,73.0,71.1,93,29.81,7.0,SSW,4.6,-,N/A,,Overcast,200,2013-07-11 05:52:00
2:52 AM,73.0,70.0,90,29.80,6.0,SSW,5.8,-,N/A,,Overcast,210,2013-07-11 06:52:00
3:52 AM,72.0,70.0,93,29.82,6.0,SW,5.8,-,N/A,,Overcast,220,2013-07-11 07:52:00
4:07 AM,71.6,69.8,94,29.82,6.0,SSW,6.9,-,N/A,,Overcast,200,2013-07-11 08:07:00
4:52 AM,72.0,70.0,93,29.84,6.0,SSW,4.6,-,N/A,,Overcast,210,2013-07-11 08:52:00
5:52 AM,72.0,70.0,93,29.84,5.0,Calm,Calm,-,N/A,,Overcast,0,2013-07-11 09:52:00
6:23 AM,71.6,69.8,94,29.85,5.0,SSW,4.6,-,N/A,,Overcast,200,2013-07-11 10:23:00
6:52 AM,72.0,69.1,91,29.85,5.0,SSW,3.5,-,N/A,,Scattered Clouds,210,2013-07-11 10:52:00
7:09 AM,71.6,69.8,94,29.86,5.0,SSW,5.8,-,N/A,,Mostly Cloudy,210,2013-07-11 11:09:00
7:25 AM,71.6,69.8,94,29.86,5.0,SSW,3.5,-,N/A,,Scattered Clouds,210,2013-07-11 11:25:00
7:52 AM,72.0,69.1,91,29.86,5.0,SW,4.6,-,N/A,,Scattered Clouds,220,2013-07-11 11:52:00
8:52 AM,73.0,69.1,87,29.86,9.0,SSW,3.5,-,N/A,,Mostly Cloudy,210,2013-07-11 12:52:00
9:52 AM,73.0,66.9,81,29.87,10.0,Variable,3.5,-,0.00,,Mostly Cloudy,0,2013-07-11 13:52:00
10:52 AM,73.9,66.0,76,29.87,10.0,SW,5.8,-,N/A,,Mostly Cloudy,220,2013-07-11 14:52:00
11:52 AM,75.9,66.9,74,29.88,10.0,Calm,Calm,-,N/A,,Scattered Clouds,0,2013-07-11 15:52:00
12:00 PM,75.2,66.2,73,29.89,10.0,Variable,3.5,-,N/A,,Mostly Cloudy,0,2013-07-11 16:00:00
12:17 PM,75.2,66.2,73,29.88,10.0,Variable,5.8,-,N/A,,Scattered Clouds,0,2013-07-11 16:17:00
12:52 PM,78.1,66.9,68,29.87,10.0,WSW,4.6,-,N/A,,Partly Cloudy,240,2013-07-11 16:52:00
1:52 PM,78.1,64.9,64,29.86,10.0,West,5.8,-,N/A,,Partly Cloudy,270,2013-07-11 17:52:00
2:52 PM,81.0,64.9,58,29.87,10.0,West,6.9,-,N/A,,Clear,280,2013-07-11 18:52:00
3:52 PM,80.1,64.0,58,29.87,10.0,WSW,5.8,-,N/A,,Clear,250,2013-07-11 19:52:00
4:52 PM,81.0,64.0,56,29.87,10.0,NW,8.1,-,N/A,,Scattered Clouds,320,2013-07-11 20:52:00
5:52 PM,78.1,64.9,64,29.89,10.0,Variable,6.9,-,N/A,,Scattered Clouds,0,2013-07-11 21:52:00
6:52 PM,75.9,64.0,67,29.91,10.0,Calm,Calm,-,N/A,,Overcast,0,2013-07-11 22:52:00
7:52 PM,73.9,66.0,76,29.93,10.0,Calm,Calm,-,N/A,,Mostly Cloudy,0,2013-07-11 23:52:00
8:52 PM,70.0,66.0,87,29.95,10.0,Calm,Calm,-,N/A,,Overcast,0,2013-07-12 00:52:00
9:52 PM,68.0,66.0,93,29.97,10.0,Calm,Calm,-,N/A,,Clear,0,2013-07-12 01:52:00
10:52 PM,66.9,63.0,87,29.99,10.0,Calm,Calm,-,N/A,,Clear,0,2013-07-12 02:52:00
11:52 PM,64.9,62.1,90,30.00,10.0,Calm,Calm,-,N/A,,Partly Cloudy,0,2013-07-12 03:52:00